Orbital Elements at Epoch 2459000.5 (2020-May-31.0) TDB
Reference: JPL 8 (heliocentric ecliptic J2000)
Element | Value | Uncertainty (1-sigma) | Units |
e | .4166343344523428 | 0.00023722 | |
a | 1.596123212727973 | 0.00042707 | au |
q | .9311234802891188 | 0.00012953 | au |
i | 1.931744372807731 | 0.0020853 | deg |
node | 302.5912098769095 | 0.0033286 | deg |
peri | 141.513791761826 | 0.03851 | deg |
M | 246.9401140812183 | 1.0308 | deg |
tp | 2459231.815156215069 (2021-Jan-17.31515621) | 2.2017 | TDB |
period | 736.5428999039127 2.02 | 0.29561 0.0008093 | d yr |
n | .4887699006357465 | 0.00019617 | deg/d |
Q | 2.261122945166827 | 0.000605 | au |
|
| | Orbit Determination Parameters
Additional Information
|